When you browse on this site, cookies collect data to enhance your experience and personalize the content and advertising you see.
Visit our Privacy Policy to learn more. By continuing to use the site, you agree to this use of cookies and data.
EN

Hourly Weather Godziszow

Today, 19 September, Saturday

Time Temperature Precipitation Wind Pressure Humidity
00:00 +9°C° 0 mm 1 mps 747 mmHg 71%
01:00 +9°C° 0 mm 1 mps 747 mmHg 73%
02:00 +9°C° 0 mm 1 mps 746 mmHg 74%
03:00 +9°C° 0 mm 1 mps 746 mmHg 76%
04:00 +7°C° 0 mm 0 mps 746 mmHg 78%
05:00 +8°C° 0 mm 0 mps 746 mmHg 75%
06:00 +10°C° 0 mm 0 mps 746 mmHg 72%
07:00 +11°C° 0 mm 0 mps 746 mmHg 68%
08:00 +12°C° 0 mm 0 mps 746 mmHg 62%
09:00 +15°C° 0 mm 1 mps 746 mmHg 55%
10:00 +18°C° 0 mm 1 mps 746 mmHg 49%
11:00 +19°C° 0 mm 1 mps 746 mmHg 45%
12:00 +20°C° 0 mm 1 mps 745 mmHg 41%
13:00 +21°C° 0 mm 1 mps 745 mmHg 38%
14:00 +20°C° 0 mm 1 mps 745 mmHg 41%
15:00 +20°C° 0 mm 1 mps 744 mmHg 45%
16:00 +19°C° 0 mm 1 mps 744 mmHg 48%
17:00 +18°C° 0 mm 1 mps 744 mmHg 51%
18:00 +15°C° 0 mm 1 mps 744 mmHg 53%
19:00 +14°C° 0 mm 1 mps 743 mmHg 55%
20:00 +13°C° 0 mm 1 mps 744 mmHg 56%
21:00 +13°C° 0 mm 1 mps 744 mmHg 57%
22:00 +12°C° 0 mm 1 mps 744 mmHg 57%
23:00 +12°C° 0 mm 1 mps 744 mmHg 58%

Tomorrow, 20 September, Sunday

Time Temperature Precipitation Wind Pressure Humidity
00:00 +10°C° 0 mm 2 mps 744 mmHg 59%
01:00 +10°C° 0 mm 2 mps 743 mmHg 59%
02:00 +9°C° 0 mm 2 mps 743 mmHg 61%
03:00 +9°C° 0 mm 2 mps 743 mmHg 62%
04:00 +9°C° 0 mm 2 mps 743 mmHg 63%
05:00 +9°C° 0 mm 2 mps 743 mmHg 63%
06:00 +10°C° 0 mm 2 mps 743 mmHg 63%
07:00 +12°C° 0 mm 2 mps 743 mmHg 63%
08:00 +12°C° 0 mm 3 mps 743 mmHg 59%
09:00 +14°C° 0 mm 3 mps 743 mmHg 55%
10:00 +17°C° 0 mm 4 mps 743 mmHg 52%
11:00 +18°C° 0 mm 4 mps 743 mmHg 51%
12:00 +18°C° 0 mm 4 mps 743 mmHg 50%
13:00 +19°C° 0 mm 4 mps 743 mmHg 49%
14:00 +19°C° 0 mm 4 mps 742 mmHg 52%
15:00 +18°C° 0 mm 3 mps 742 mmHg 55%
16:00 +18°C° 0 mm 3 mps 742 mmHg 58%
17:00 +17°C° 0 mm 3 mps 742 mmHg 60%
18:00 +14°C° 0 mm 3 mps 742 mmHg 62%
19:00 +13°C° 0 mm 3 mps 742 mmHg 64%
20:00 +13°C° 0 mm 3 mps 742 mmHg 64%
21:00 +12°C° 0 mm 3 mps 742 mmHg 63%
22:00 +12°C° 0 mm 3 mps 742 mmHg 63%
23:00 +12°C° 0 mm 3 mps 742 mmHg 65%

Day after tomorrow, 21 September, Monday

Time Temperature Precipitation Wind Pressure Humidity
00:00 +11°C° 0 mm 3 mps 741 mmHg 68%
01:00 +11°C° 0 mm 3 mps 741 mmHg 70%
02:00 +12°C° 0 mm 2 mps 741 mmHg 72%
03:00 +12°C° 0 mm 2 mps 741 mmHg 73%
04:00 +10°C° 0 mm 2 mps 741 mmHg 74%
05:00 +12°C° 0 mm 2 mps 741 mmHg 74%
06:00 +12°C° 0 mm 2 mps 741 mmHg 73%
07:00 +13°C° 0 mm 2 mps 741 mmHg 73%
08:00 +15°C° 0 mm 2 mps 741 mmHg 66%
09:00 +17°C° 0 mm 2 mps 741 mmHg 58%
10:00 +20°C° 0 mm 2 mps 742 mmHg 51%
11:00 +21°C° 0 mm 2 mps 741 mmHg 47%
12:00 +23°C° 0 mm 2 mps 741 mmHg 43%
13:00 +24°C° 0 mm 2 mps 741 mmHg 39%
14:00 +24°C° 0 mm 1 mps 741 mmHg 42%
15:00 +24°C° 0 mm 1 mps 741 mmHg 44%
16:00 +23°C° 0 mm 1 mps 740 mmHg 47%
17:00 +21°C° 0 mm 1 mps 740 mmHg 51%
18:00 +19°C° 0 mm 1 mps 740 mmHg 55%
19:00 +16°C° 0 mm 1 mps 740 mmHg 60%
20:00 +16°C° 0 mm 1 mps 740 mmHg 61%
21:00 +15°C° 0 mm 1 mps 740 mmHg 62%
22:00 +15°C° 0 mm 1 mps 740 mmHg 64%
23:00 +15°C° 0 mm 1 mps 740 mmHg 66%

22 September, Tuesday

Time Temperature Precipitation Wind Pressure Humidity
00:00 +14°C° 0 mm 1 mps 740 mmHg 67%
01:00 +14°C° 0 mm 1 mps 740 mmHg 69%
02:00 +14°C° 0 mm 1 mps 740 mmHg 70%
03:00 +13°C° 0 mm 2 mps 740 mmHg 71%
04:00 +13°C° 0 mm 2 mps 739 mmHg 72%
05:00 +14°C° 0 mm 2 mps 740 mmHg 70%
06:00 +15°C° 0 mm 2 mps 740 mmHg 69%
07:00 +16°C° 0 mm 2 mps 740 mmHg 67%
08:00 +18°C° 0 mm 2 mps 740 mmHg 60%
09:00 +20°C° 0 mm 2 mps 740 mmHg 53%
10:00 +23°C° 0 mm 2 mps 740 mmHg 46%
11:00 +24°C° 0 mm 3 mps 740 mmHg 43%
12:00 +25°C° 0 mm 3 mps 739 mmHg 40%
13:00 +26°C° 0 mm 3 mps 739 mmHg 37%
14:00 +26°C° 0 mm 3 mps 738 mmHg 40%
15:00 +25°C° 0 mm 3 mps 738 mmHg 44%
16:00 +25°C° 0 mm 2 mps 737 mmHg 47%
17:00 +23°C° 0 mm 2 mps 737 mmHg 52%
18:00 +20°C° 0 mm 3 mps 737 mmHg 56%
19:00 +18°C° 0 mm 3 mps 737 mmHg 61%
20:00 +18°C° 0 mm 3 mps 737 mmHg 62%
21:00 +17°C° 0 mm 3 mps 737 mmHg 63%
22:00 +16°C° 0 mm 3 mps 737 mmHg 65%
23:00 +16°C° 0 mm 3 mps 736 mmHg 66%

23 September, Wednesday

Time Temperature Precipitation Wind Pressure Humidity
00:00 +16°C° 0 mm 3 mps 736 mmHg 67%
01:00 +14°C° 0 mm 3 mps 736 mmHg 68%
02:00 +14°C° 0 mm 3 mps 735 mmHg 68%
03:00 +14°C° 0 mm 3 mps 735 mmHg 69%
04:00 +13°C° 0 mm 3 mps 735 mmHg 69%
05:00 +14°C° 0 mm 3 mps 735 mmHg 67%
06:00 +15°C° 0 mm 4 mps 735 mmHg 65%
07:00 +17°C° 0 mm 4 mps 734 mmHg 63%
08:00 +19°C° 0 mm 4 mps 734 mmHg 56%
09:00 +21°C° 0 mm 5 mps 734 mmHg 49%
10:00 +23°C° 0 mm 5 mps 734 mmHg 43%
11:00 +24°C° 0 mm 6 mps 734 mmHg 41%
12:00 +26°C° 0 mm 6 mps 734 mmHg 39%
13:00 +27°C° 0 mm 6 mps 734 mmHg 38%
14:00 +26°C° 0 mm 6 mps 733 mmHg 41%
15:00 +25°C° 0 mm 5 mps 733 mmHg 44%
16:00 +23°C° 0 mm 4 mps 732 mmHg 48%
17:00 +21°C° 0 mm 4 mps 732 mmHg 50%
18:00 +20°C° 0 mm 4 mps 733 mmHg 52%
19:00 +19°C° 0 mm 4 mps 733 mmHg 53%
20:00 +19°C° 0 mm 4 mps 733 mmHg 54%
21:00 +18°C° 0 mm 3 mps 733 mmHg 55%
22:00 +18°C° 0 mm 3 mps 733 mmHg 56%
23:00 +17°C° 0 mm 3 mps 732 mmHg 58%

24 September, Thursday

Time Temperature Precipitation Wind Pressure Humidity
00:00 +17°C° 0 mm 3 mps 732 mmHg 60%
01:00 +16°C° 0 mm 3 mps 732 mmHg 61%
02:00 +16°C° 0 mm 3 mps 732 mmHg 61%
03:00 +16°C° 0 mm 3 mps 732 mmHg 62%
04:00 +16°C° 0 mm 3 mps 732 mmHg 62%
05:00 +16°C° 0 mm 3 mps 732 mmHg 61%
06:00 +17°C° 0 mm 3 mps 732 mmHg 61%
07:00 +18°C° 0 mm 3 mps 733 mmHg 60%
08:00 +19°C° 0 mm 3 mps 733 mmHg 58%
09:00 +21°C° 0 mm 4 mps 733 mmHg 56%
10:00 +22°C° 0 mm 4 mps 733 mmHg 54%
11:00 +23°C° 0 mm 4 mps 733 mmHg 53%
12:00 +23°C° 0 mm 4 mps 733 mmHg 52%
13:00 +25°C° 0 mm 3 mps 733 mmHg 51%
14:00 +25°C° 0 mm 3 mps 733 mmHg 55%
15:00 +24°C° 0 mm 3 mps 733 mmHg 59%
16:00 +22°C° 0 mm 3 mps 733 mmHg 62%
17:00 +21°C° 0 mm 3 mps 732 mmHg 68%
18:00 +20°C° 0 mm 3 mps 732 mmHg 74%
19:00 +18°C° 0 mm 3 mps 732 mmHg 79%
20:00 +18°C° 0 mm 3 mps 732 mmHg 80%
21:00 +18°C° 0 mm 3 mps 733 mmHg 81%
22:00 +17°C° 0 mm 3 mps 733 mmHg 82%
23:00 +17°C° 0 mm 3 mps 732 mmHg 82%
Show more